User: anonymous
Location: Fort Wayne
(41.1310°N, 85.1290°W)
Time: 05:10:27
(UTC-04:00)
Language:

CZ-2C R/B - Orbit

View from above orbital plane
View from above orbital plane
View from above satellite
View from above satellite

Ground track
Ground track

The orbit data is extracted from the following two-line orbital elements,

1 36089U 09061B   14244.74641317  .00000149  00000-0  49262-4 0  4110
2 36089 098.1011 274.6799 0081268 303.9992 183.3902 14.49210065254023
Epoch (UTC): 01 September 2014 17:54:50
Eccentricity: 0.0081268
inclination: 98.1011°
perigee height: 670 km
apogee height: 786 km
right ascension of ascending node: 274.6799°
argument of perigee: 303.9992°
revolutions per day: 14.49210065
mean anomaly at epoch: 183.3902°
orbit number at epoch: 25402

The dashed part of the orbit path shows where the satellite is in the earth's shadow,  

DLR